• In Hungary
  • List of Countries
  • For 7 days
  • Water Temperature
  • Satellite Maps
  • Weather Map
  • News
  • Weather Widgets
  • user-avatar
    Login

    Hourly Weather Novyy

    Today, 21 May, Monday

    Time Temperature Precipitation Wind Pressure Humidity
    00:00 +6°C° 0 mm 1 mps 758 mmHg 85%
    01:00 +5°C° 0 mm 2 mps 758 mmHg 86%
    02:00 +5°C° 0 mm 2 mps 758 mmHg 87%
    03:00 +4°C° 0 mm 2 mps 758 mmHg 88%
    04:00 +5°C° 0 mm 2 mps 759 mmHg 83%
    05:00 +7°C° 0 mm 2 mps 760 mmHg 77%
    06:00 +8°C° 0 mm 2 mps 760 mmHg 72%
    07:00 +10°C° 0 mm 2 mps 760 mmHg 63%
    08:00 +11°C° 0 mm 3 mps 761 mmHg 54%
    09:00 +13°C° 0 mm 3 mps 761 mmHg 46%
    10:00 +14°C° 0 mm 3 mps 761 mmHg 43%
    11:00 +16°C° 0 mm 3 mps 761 mmHg 41%
    12:00 +18°C° 0 mm 3 mps 761 mmHg 38%
    13:00 +18°C° 0 mm 3 mps 761 mmHg 38%
    14:00 +19°C° 0 mm 3 mps 761 mmHg 37%
    15:00 +19°C° 0 mm 3 mps 762 mmHg 37%
    16:00 +19°C° 0 mm 3 mps 762 mmHg 40%
    17:00 +19°C° 0 mm 2 mps 762 mmHg 44%
    18:00 +19°C° 0 mm 1 mps 762 mmHg 47%
    19:00 +16°C° 0 mm 1 mps 762 mmHg 52%
    20:00 +14°C° 0 mm 1 mps 763 mmHg 56%
    21:00 +11°C° 0 mm 0 mps 763 mmHg 61%
    22:00 +10°C° 0 mm 0 mps 763 mmHg 62%
    23:00 +10°C° 0 mm 0 mps 764 mmHg 64%

    Tomorrow, 22 May, Tuesday

    Time Temperature Precipitation Wind Pressure Humidity
    00:00 +9°C° 0 mm 0 mps 764 mmHg 65%
    01:00 +9°C° 0 mm 0 mps 764 mmHg 66%
    02:00 +9°C° 0 mm 1 mps 764 mmHg 67%
    03:00 +9°C° 0 mm 1 mps 765 mmHg 68%
    04:00 +10°C° 0 mm 1 mps 765 mmHg 66%
    05:00 +12°C° 0 mm 1 mps 765 mmHg 63%
    06:00 +13°C° 0 mm 1 mps 765 mmHg 60%
    07:00 +16°C° 0 mm 1 mps 765 mmHg 55%
    08:00 +19°C° 0 mm 1 mps 765 mmHg 49%
    09:00 +20°C° 0 mm 2 mps 766 mmHg 43%
    10:00 +21°C° 0 mm 2 mps 765 mmHg 41%
    11:00 +23°C° 0 mm 2 mps 765 mmHg 38%
    12:00 +24°C° 0 mm 2 mps 765 mmHg 36%
    13:00 +25°C° 0 mm 2 mps 765 mmHg 36%
    14:00 +25°C° 0 mm 1 mps 765 mmHg 35%
    15:00 +25°C° 0 mm 1 mps 764 mmHg 34%
    16:00 +24°C° 0 mm 1 mps 764 mmHg 38%
    17:00 +24°C° 0 mm 1 mps 764 mmHg 43%
    18:00 +23°C° 0 mm 1 mps 763 mmHg 47%
    19:00 +21°C° 0 mm 1 mps 763 mmHg 52%
    20:00 +18°C° 0 mm 1 mps 763 mmHg 58%
    21:00 +15°C° 0 mm 1 mps 763 mmHg 64%
    22:00 +14°C° 0 mm 2 mps 764 mmHg 66%
    23:00 +13°C° 0 mm 2 mps 764 mmHg 68%

    Day after tomorrow, 23 May, Wednesday

    Time Temperature Precipitation Wind Pressure Humidity
    00:00 +13°C° 0 mm 2 mps 764 mmHg 71%
    01:00 +12°C° 0 mm 2 mps 764 mmHg 72%
    02:00 +12°C° 0 mm 2 mps 764 mmHg 73%
    03:00 +10°C° 0 mm 2 mps 763 mmHg 74%
    04:00 +12°C° 0 mm 2 mps 763 mmHg 70%
    05:00 +14°C° 0 mm 2 mps 763 mmHg 67%
    06:00 +15°C° 0 mm 2 mps 763 mmHg 64%
    07:00 +16°C° 0 mm 3 mps 763 mmHg 60%
    08:00 +18°C° 0 mm 3 mps 762 mmHg 55%
    09:00 +19°C° 0 mm 3 mps 762 mmHg 51%
    10:00 +21°C° 0 mm 4 mps 762 mmHg 48%
    11:00 +22°C° 0 mm 4 mps 761 mmHg 44%
    12:00 +23°C° 0 mm 4 mps 761 mmHg 41%
    13:00 +25°C° 0 mm 4 mps 761 mmHg 42%
    14:00 +25°C° 0 mm 5 mps 760 mmHg 43%
    15:00 +25°C° 0 mm 5 mps 760 mmHg 44%
    16:00 +23°C° 0.1 mm 4 mps 759 mmHg 50%
    17:00 +22°C° 0.1 mm 4 mps 759 mmHg 56%
    18:00 +21°C° 0.1 mm 3 mps 758 mmHg 62%
    19:00 +20°C° 0 mm 3 mps 758 mmHg 66%
    20:00 +18°C° 0 mm 3 mps 757 mmHg 71%
    21:00 +17°C° 0 mm 2 mps 757 mmHg 76%
    22:00 +16°C° 0 mm 2 mps 757 mmHg 78%
    23:00 +16°C° 0 mm 3 mps 756 mmHg 79%

    24 May, Thursday

    Time Temperature Precipitation Wind Pressure Humidity
    00:00 +16°C° 0 mm 3 mps 756 mmHg 81%
    01:00 +16°C° 0.8 mm 3 mps 756 mmHg 84%
    02:00 +16°C° 0.8 mm 2 mps 755 mmHg 88%
    03:00 +16°C° 0.8 mm 2 mps 755 mmHg 92%
    04:00 +16°C° 0.8 mm 2 mps 755 mmHg 93%
    05:00 +17°C° 0.8 mm 3 mps 755 mmHg 93%
    06:00 +17°C° 0.8 mm 3 mps 755 mmHg 94%
    07:00 +18°C° 0.6 mm 3 mps 754 mmHg 90%
    08:00 +19°C° 0.6 mm 3 mps 754 mmHg 86%
    09:00 +20°C° 0.6 mm 3 mps 754 mmHg 82%
    10:00 +21°C° 0.3 mm 3 mps 754 mmHg 77%
    11:00 +22°C° 0.3 mm 3 mps 753 mmHg 71%
    12:00 +24°C° 0.3 mm 3 mps 753 mmHg 65%
    13:00 +24°C° 0.6 mm 3 mps 753 mmHg 65%
    14:00 +24°C° 0.6 mm 3 mps 753 mmHg 65%
    15:00 +24°C° 0.6 mm 3 mps 753 mmHg 65%
    16:00 +21°C° 0.7 mm 3 mps 753 mmHg 71%
    17:00 +20°C° 0.7 mm 3 mps 754 mmHg 76%
    18:00 +19°C° 0.7 mm 3 mps 754 mmHg 81%
    19:00 +18°C° 0.2 mm 4 mps 754 mmHg 83%
    20:00 +15°C° 0.2 mm 5 mps 755 mmHg 85%
    21:00 +13°C° 0.2 mm 5 mps 755 mmHg 88%
    22:00 +12°C° 0 mm 5 mps 756 mmHg 86%
    23:00 +10°C° 0 mm 5 mps 756 mmHg 84%

    25 May, Friday

    Time Temperature Precipitation Wind Pressure Humidity
    00:00 +9°C° 0 mm 5 mps 756 mmHg 82%
    01:00 +8°C° 0 mm 5 mps 757 mmHg 79%
    02:00 +8°C° 0 mm 5 mps 758 mmHg 77%
    03:00 +8°C° 0 mm 5 mps 758 mmHg 74%
    04:00 +7°C° 0 mm 5 mps 759 mmHg 70%
    05:00 +7°C° 0 mm 6 mps 759 mmHg 67%
    06:00 +7°C° 0 mm 6 mps 760 mmHg 63%
    07:00 +8°C° 0 mm 6 mps 760 mmHg 59%
    08:00 +9°C° 0 mm 6 mps 761 mmHg 55%
    09:00 +10°C° 0 mm 6 mps 761 mmHg 50%
    10:00 +10°C° 0 mm 6 mps 761 mmHg 48%
    11:00 +12°C° 0 mm 5 mps 761 mmHg 46%
    12:00 +13°C° 0 mm 5 mps 761 mmHg 44%
    13:00 +13°C° 0 mm 5 mps 761 mmHg 43%
    14:00 +13°C° 0 mm 5 mps 762 mmHg 43%
    15:00 +14°C° 0 mm 5 mps 762 mmHg 42%
    16:00 +13°C° 0 mm 5 mps 762 mmHg 44%
    17:00 +13°C° 0 mm 5 mps 762 mmHg 45%
    18:00 +12°C° 0 mm 4 mps 762 mmHg 47%
    19:00 +11°C° 0 mm 4 mps 763 mmHg 51%
    20:00 +9°C° 0 mm 3 mps 763 mmHg 55%
    21:00 +7°C° 0 mm 3 mps 764 mmHg 59%
    22:00 +5°C° 0 mm 3 mps 764 mmHg 59%
    23:00 +6°C° 0 mm 2 mps 764 mmHg 60%

    26 May, Saturday

    Time Temperature Precipitation Wind Pressure Humidity
    00:00 +5°C° 0 mm 2 mps 765 mmHg 60%
    01:00 +5°C° 0 mm 2 mps 765 mmHg 61%
    02:00 +4°C° 0 mm 2 mps 765 mmHg 62%
    03:00 +4°C° 0 mm 2 mps 766 mmHg 63%
    04:00 +5°C° 0 mm 2 mps 766 mmHg 61%
    05:00 +6°C° 0 mm 2 mps 766 mmHg 59%
    06:00 +8°C° 0 mm 2 mps 766 mmHg 57%
    07:00 +10°C° 0 mm 2 mps 766 mmHg 51%
    08:00 +13°C° 0 mm 2 mps 766 mmHg 45%
    09:00 +14°C° 0 mm 2 mps 766 mmHg 40%
    10:00 +16°C° 0 mm 2 mps 766 mmHg 39%
    11:00 +17°C° 0 mm 3 mps 766 mmHg 38%
    12:00 +18°C° 0 mm 3 mps 766 mmHg 38%
    13:00 +18°C° 0 mm 3 mps 765 mmHg 38%
    14:00 +19°C° 0 mm 3 mps 765 mmHg 38%
    15:00 +19°C° 0 mm 3 mps 764 mmHg 38%
    16:00 +19°C° 0 mm 3 mps 764 mmHg 42%
    17:00 +19°C° 0 mm 2 mps 763 mmHg 46%
    18:00 +19°C° 0 mm 2 mps 763 mmHg 50%
    19:00 +17°C° 0 mm 2 mps 763 mmHg 55%
    20:00 +15°C° 0 mm 2 mps 763 mmHg 59%
    21:00 +13°C° 0 mm 2 mps 763 mmHg 64%
    22:00 +11°C° 0 mm 3 mps 762 mmHg 66%
    23:00 +10°C° 0 mm 3 mps 762 mmHg 68%
    Show more